2021-050A (48840 NORAD) Tracking and Keplerian Element Data

This shows tracking and keplerian element data for the satellite.

Feedback or suggestion? Click here.




ElementValue
Catalog48840
Name2021-050A
Epoch Orbit807
Epoch Day215.18381397
Epoch Year2021
RAAN284.9643
Inclination97.5107
Eccentricity0.0013896
Argument of Perigee90.7745
Mean Anonmoly353.7069
Mean Motion15.23769991
Decay Rate-7.3E-07
L11 48840U 21050A 21215.18381397 -.00000073 00000-0 00000+0 0 9993
L22 48840 97.5107 284.9643 0013896 90.7745 353.7069 15.23769991 8070

Live tracking and technical data element details for 2021-050A (NORAD 48840). 2021-050A can be tracked NOW for your location showing map with azimuth and elevation plus other details from your city location.

Track the satellite on the map from your city or location and see movement details for azimuth, elevation, latitude, longitude, range, height, and movement on the map or in text.







IsCatalogInMostPopularTable: catalog: 48840, numindb: 12
Update: records affected: 1



GetName: 48840 2021-050A

Hit Count: updated at: Tue, 03 Aug 2021 22:46:38 GMT